Regional Weather Roundup
Issued by NWS Green Bay, WI

Home | Current Version | Previous Version | Graphics & Text | Print | Product List | Glossary Off
Versions: 1 2 3 4 5 6 7 8 9 10 11 12 13 14 15 16 17 18 19 20 21 22 23 24 25 26 27 28 29 30 31 32 33 34 35 36 37 38 39 40 41 42 43 44 45 46 47 48 49 50

195
ASUS43 KGRB 302000
RWRGRB

NORTH-CENTRAL AND NORTHEAST WISCONSIN REGIONAL WEATHER ROUNDUP
NATIONAL WEATHER SERVICE GREEN BAY WI
300 PM CDT SAT APR 30 2016

WIZ005-009-010>012-018-019-302100-
NORTH CENTRAL WISCONSIN

CITY           SKY/WX    TMP DP  RH WIND       PRES   REMARKS
IRONWOOD         N/A     48  30  49 NE10G22   30.17F
MANITOWISH WTR NOT AVBL
ARBOR VITAE    NOT AVBL
EAGLE RIVER    NOT AVBL
LAND O LAKES   NOT AVBL
RHINELANDER    CLOUDY    56  31  38 NE13G21   30.11F
PHILLIPS       NOT AVBL
ANTIGO         NOT AVBL
TOMAHAWK       NOT AVBL
MERRILL        NOT AVBL
$$

WIZ013-073-302100-
NORTHEAST WISCONSIN

CITY           SKY/WX    TMP DP  RH WIND       PRES   REMARKS
IRON MOUNTAIN  CLOUDY    56  30  37 NE12      30.13R
MARINETTE      CLOUDY    50  30  46 E9        30.14S
$$

WIZ017-030-035>037-045-302100-
CENTRAL WISCONSIN

CITY           SKY/WX    TMP DP  RH WIND       PRES   REMARKS
MEDFORD        NOT AVBL
WAUSAU         CLOUDY    57  31  37 E14G24    30.06F
MOSINEE        SUNNY     54  32  43 E14       30.09F
MARSHFIELD     CLOUDY    54  33  45 E14       30.05F
WISC RAPIDS    CLOUDY    53  31  42 E22G31    30.06F
STEVENS POINT  NOT AVBL
WAUPACA        NOT AVBL
SHAWANO        NOT AVBL
CLINTONVILLE   NOT AVBL
WAUTOMA        CLOUDY    52  35  52 E15       30.05
$$

WIZ038-039-048-051-302100-
FOX VALLEY

CITY           SKY/WX    TMP DP  RH WIND       PRES   REMARKS
NWS GREEN BAY  CLOUDY    51  36  56 NE15      30.10F
APPLETON       CLOUDY    52  34  50 NE18      30.07F
OSHKOSH        CLOUDY    51  33  50 E13       30.07S
FOND DU LAC    CLOUDY    51  34  52 E13       30.06F
$$

WIZ022-050-052-302100-
EAST CENTRAL WISCONSIN

CITY           SKY/WX    TMP DP  RH WIND       PRES   REMARKS
EPHRAIM        NOT AVBL
STURGEON BAY   CLOUDY    48  34  57 E7        30.15F
MANITOWOC      NOT AVBL
SHEBOYGAN      CLOUDY    48  35  60 NE13      30.08S
$$

LMZ563-521-522-541>543-302100-
LAKESHORE

STATION/POSITION TIME  TEMP    WIND        PRES    VSBY  WAVE
                       AIR SEA DIR/SP/G                  HT/PER
                 (UTC) (F)     (DEG/KT/KT) (MB)    (MI)  (FT/S)
SHEBOYGAN LKSHOR 1900   41      20/ 16/ 17 1019.4F
KEWAUNEE LKSHORE 1900   42      20/ 12/ 16 1019.3F
ALGOMA MARINA    1915           20/ 13/ 16   N/A
NORTHPORT PIER   1900   44      70/ 12/ 13 1020.7F
N MID LAKE BUOY  1850   41 39   40/ 10/ 10 1020.9F         1/ 3
CHAMBERS ISLAND  1900   49      40/ 10/ 13 1021.0S
MENOMINEE LKSHOR 1900   43      20/  9/ 11 1019.6F
$$




USA.gov is the U.S. government's official web portal to all federal, state and local government web resources and services.